RH
3 2 3 3 5 9 13 19 23 35 64 75 70 70 70 72 69 71 80 65 40 35 30 25 32 41 49 61 53 31 24 24 20 17 12 8 8 8 8 16 19 8 4 5 3 3 3 2 2 1 2 2 2 3 3 3 3 3 3 3 3 3 4 5 5 6 5 5 5 5 6 5 6 6 7 7 7 7 8 7 7 7 7 7 7 7
3 3 2 2 4 9 14 26 30 34 57 73 71 71 69 67 67 66 75 72 48 37 40 34 33 38 43 47 36 22 23 22 20 22 18 12 9 9 10 13 15 9 3 3 2 2 1 1 2 1 2 2 2 3 3 3 3 3 2 3 4 4 4 4 5 5 5 5 5 5 6 6 6 7 7 7 7 7 7 7 7 7 7 7 7 6
2 2 3 3 3 9 17 28 33 32 49 73 76 71 70 67 65 64 69 74 59 43 42 38 34 38 39 38 32 25 23 20 19 19 19 17 12 12 16 13 11 10 6 2 2 2 2 2 2 3 3 3 3 2 3 4 3 4 4 3 4 4 4 4 5 5 5 5 5 5 6 6 6 6 7 7 7 7 7 7 7 7 7 7 7 7
3 2 2 3 3 7 15 23 30 30 41 66 76 71 73 70 64 67 69 67 62 51 44 42 42 44 44 39 36 34 27 22 25 22 17 20 18 15 15 12 11 11 7 3 4 4 4 4 4 4 4 4 4 3 3 4 4 5 4 3 4 4 5 4 5 5 5 5 5 6 6 6 7 7 7 7 7 7 7 7 7 7 7 7 6 7
3 3 2 3 3 4 12 20 26 31 37 54 69 71 75 70 61 68 71 62 64 66 53 46 49 50 46 41 36 36 31 24 26 25 20 20 18 13 12 11 13 13 8 3 5 5 4 5 5 5 5 5 4 4 4 4 4 4 4 4 4 4 5 5 5 5 5 5 5 6 6 7 7 7 7 7 7 6 6 6 6 6 6 6 5 5
3 4 3 3 3 3 9 15 19 28 38 50 64 70 72 70 63 67 71 66 73 79 63 48 50 48 40 38 38 36 33 28 25 24 24 25 21 14 12 10 8 8 6 3 4 5 5 5 6 6 6 6 6 6 6 5 4 4 3 3 3 4 4 5 6 6 5 5 6 6 7 7 7 7 7 6 6 5 5 5 4 5 4 4 4 4
3 4 4 3 2 3 5 9 16 25 38 51 63 69 72 71 67 69 70 72 81 83 67 51 45 48 51 51 47 40 34 30 30 27 26 32 31 20 16 17 13 8 4 4 5 5 5 5 5 6 5 5 5 5 6 6 5 5 4 4 3 3 4 5 5 5 6 5 6 7 6 7 7 6 6 5 5 5 5 6 6 6 7 7 7 7
3 3 5 3 2 4 3 5 13 19 28 44 60 67 71 72 70 72 73 75 83 81 71 58 45 52 67 64 52 45 40 35 34 34 30 33 34 26 23 24 22 15 7 6 7 7 9 11 11 12 14 14 11 8 5 5 6 5 5 5 4 4 3 4 5 4 6 6 6 6 6 7 6 5 6 5 6 8 8 8 9 8 9 8 8 7
3 3 4 4 3 3 2 3 6 14 23 35 58 70 67 67 70 74 76 77 82 81 76 68 53 51 60 62 58 53 48 41 35 35 36 39 38 31 32 36 31 23 15 11 10 11 15 20 22 24 29 32 29 24 16 8 5 4 4 4 4 5 4 4 5 4 5 5 5 6 6 6 6 6 6 7 8 9 9 9 10 10 9 9 9 9
2 3 4 4 4 3 3 3 2 13 22 25 48 70 66 63 67 71 73 76 79 80 82 80 67 54 49 55 62 58 51 46 39 38 40 39 33 27 34 47 43 30 25 23 18 16 20 25 30 31 33 36 37 38 35 24 13 6 4 4 4 4 6 5 5 5 5 5 5 6 6 6 6 7 7 9 8 8 10 13 13 11 11 10 10 10
2 3 4 2 4 4 2 3 3 10 19 19 35 62 69 64 63 64 67 75 79 79 80 80 74 63 52 47 53 53 50 51 48 46 46 41 37 38 41 45 45 38 34 35 30 24 25 27 30 33 35 36 35 36 41 39 30 19 11 7 5 4 5 6 6 6 6 6 6 6 7 7 7 8 8 7 7 11 17 17 16 17 16 13 11 12
3 3 3 2 3 4 3 4 4 6 15 22 30 53 65 61 62 69 71 76 82 82 81 78 74 73 63 50 48 52 54 56 56 55 54 48 47 52 48 39 39 43 40 37 36 32 29 29 31 35 37 36 36 35 37 40 41 37 28 20 17 13 9 7 6 7 7 6 7 7 7 8 7 7 6 7 12 18 21 21 24 27 25 20 19 23
5 3 3 4 2 3 5 4 3 4 11 19 27 49 63 60 67 77 74 73 76 80 84 81 76 74 67 54 52 58 60 60 58 59 60 56 57 63 59 50 43 42 42 37 36 36 32 34 39 41 41 37 36 35 33 35 39 43 44 40 35 31 24 17 12 10 11 11 12 10 9 8 7 8 9 14 20 23 26 29 31 31 30 29 29 30
5 5 3 4 2 3 4 3 6 4 5 11 19 43 62 61 68 78 75 74 72 74 80 80 77 75 66 59 60 62 65 70 67 61 60 59 69 74 67 63 53 42 43 38 33 36 35 43 53 51 50 45 38 32 28 29 32 37 45 47 48 46 40 34 25 20 20 18 15 11 11 11 10 14 18 21 25 27 29 29 30 33 32 29 30 33
6 5 4 4 2 3 3 3 6 2 5 11 10 32 59 61 66 73 71 72 72 73 76 75 77 76 66 62 70 68 64 74 72 64 62 59 74 86 69 62 62 49 44 36 31 37 40 51 59 54 53 49 38 30 24 23 23 25 32 38 45 49 48 46 37 31 29 21 14 14 15 14 15 21 25 25 27 28 26 25 28 31 28 26 28 31
6 5 5 5 3 3 3 3 5 6 19 20 6 25 56 57 61 70 68 71 76 74 72 73 76 74 67 67 76 71 61 68 69 66 73 69 80 95 70 53 61 54 42 34 30 38 44 52 56 53 50 43 35 32 26 20 17 15 18 22 30 38 46 50 47 44 36 20 16 19 17 17 21 26 27 27 26 25 24 26 28 27 26 27 29 27
6 6 6 6 4 4 3 3 5 6 20 23 4 13 40 45 51 63 66 68 75 73 68 70 75 72 70 71 71 67 62 63 61 62 75 80 86 88 58 44 54 49 39 36 35 39 45 51 53 52 48 42 40 37 26 20 18 14 14 14 18 26 38 49 52 48 34 19 20 22 18 22 29 30 28 26 24 24 27 30 29 28 29 30 28 26
8 13 14 7 3 5 3 3 7 3 12 28 18 8 26 45 51 57 65 69 70 72 67 64 66 64 68 66 56 57 57 49 47 58 73 83 86 71 45 42 49 39 33 41 45 45 45 48 50 51 49 46 45 37 25 24 22 16 13 13 13 20 34 47 47 37 26 22 24 22 21 29 33 32 30 26 25 27 31 31 30 30 31 32 29 26
8 14 20 13 4 7 5 1 7 5 3 19 27 21 28 46 55 57 63 66 66 67 65 63 63 57 61 64 53 51 51 34 30 54 74 80 79 67 52 49 44 34 32 40 50 50 44 46 50 53 54 51 46 35 26 27 26 18 15 13 11 17 31 42 38 30 26 26 25 22 25 32 35 33 30 27 28 30 31 32 33 33 34 39 37 36
9 9 18 23 13 9 9 3 3 7 4 4 19 35 39 39 49 60 60 59 66 69 64 65 66 59 60 68 63 62 67 48 31 48 66 61 60 69 70 58 41 35 34 37 47 50 44 47 51 53 58 56 46 32 25 28 29 23 17 13 11 14 24 34 35 33 31 30 24 21 27 35 35 32 29 28 30 31 32 32 33 33 36 46 53 55
14 9 11 29 31 12 6 7 1 2 7 3 4 26 45 42 43 55 56 56 64 67 65 65 68 67 63 65 68 75 81 64 40 44 52 44 48 65 71 61 48 42 36 34 44 50 47 49 51 53 59 57 43 29 24 28 30 24 16 11 10 11 16 24 28 30 31 28 21 21 31 36 33 30 30 31 33 37 40 35 30 28 33 48 63 70
14 11 7 29 42 18 -1 6 7 1 5 10 4 6 28 46 51 52 54 60 63 59 60 64 66 69 66 61 68 78 80 70 55 51 53 55 60 65 68 70 65 56 44 38 41 45 46 49 49 52 58 54 44 36 29 26 27 25 16 11 10 9 10 13 16 19 21 19 18 25 33 32 28 29 31 32 35 39 38 28 21 26 40 59 71 76
11 11 6 15 32 27 9 3 6 5 4 16 21 8 10 36 57 61 55 57 61 57 57 61 63 66 65 60 65 70 70 70 71 66 62 68 72 67 67 72 69 59 48 41 40 40 43 48 49 52 59 55 50 51 43 28 25 27 19 12 10 9 10 10 10 11 12 14 22 29 29 26 26 32 35 34 32 29 28 33 40 51 68 82 84 81
10 12 10 7 16 33 34 16 7 9 8 15 26 25 19 21 37 58 62 56 57 58 60 63 62 62 62 60 64 70 68 66 72 73 70 76 80 71 65 63 61 60 52 43 45 45 46 53 54 55 59 54 50 55 54 40 28 27 24 18 15 14 13 12 11 12 14 18 23 24 23 25 30 36 38 33 30 33 44 60 70 71 73 77 80 81
10 7 12 11 9 25 40 28 11 8 7 7 13 22 23 12 16 42 58 59 59 58 60 64 62 62 64 62 64 71 72 66 69 74 73 74 75 72 70 63 57 58 55 47 49 53 57 59 58 55 53 51 50 54 58 53 37 28 27 24 21 19 17 16 15 15 17 18 20 21 25 30 33 38 37 31 38 54 62 66 67 62 59 63 67 69
29 17 14 12 7 12 19 15 9 9 11 7 4 11 19 17 21 31 36 44 56 62 64 64 60 59 61 64 65 66 70 72 67 66 67 64 58 57 61 59 53 53 53 51 54 58 62 61 57 54 50 49 52 53 58 59 44 29 27 26 25 23 20 19 18 19 21 22 23 24 28 33 35 37 34 31 43 57 56 54 55 54 55 57 59 58
38 33 21 11 9 9 9 12 18 22 27 24 10 7 16 25 33 34 28 28 40 59 66 57 57 63 59 63 69 61 65 74 59 42 46 55 57 56 51 43 44 49 49 52 58 59 59 58 56 54 52 51 52 53 58 59 46 31 25 23 24 23 21 21 20 22 25 26 25 25 29 35 36 34 33 35 41 46 46 45 46 50 55 57 61 64
19 24 23 14 10 11 14 27 36 32 34 41 37 23 18 24 33 39 39 27 25 48 56 43 56 69 52 55 74 67 62 68 52 31 33 41 48 54 48 34 34 42 43 46 53 53 54 57 56 51 47 46 50 54 58 58 48 34 23 19 20 20 20 22 22 24 26 25 25 28 34 39 37 36 38 39 40 42 43 41 40 46 57 65 70 73
13 13 18 16 11 11 13 26 48 58 55 57 61 54 38 28 26 31 39 33 25 37 41 36 53 58 29 29 58 66 65 67 54 37 29 25 27 32 32 31 33 37 39 40 42 45 49 51 47 41 37 39 46 56 62 59 49 35 23 19 19 19 19 21 21 24 26 27 31 35 39 39 36 35 34 34 39 43 43 44 43 44 51 59 66 70
15 13 14 12 11 14 11 10 30 62 77 73 69 68 63 53 41 31 30 31 31 35 34 37 58 60 34 21 26 31 46 66 70 55 30 15 19 23 24 31 38 40 39 36 34 37 40 38 37 35 35 43 53 62 67 61 46 33 25 21 21 21 21 20 22 27 32 35 37 38 36 33 31 31 30 35 45 49 50 53 54 56 57 58 61 66
14 12 15 16 16 15 13 9 13 33 62 76 72 70 71 69 63 53 39 28 30 36 33 34 49 52 41 38 34 17 13 35 63 65 39 16 15 21 25 31 37 41 41 37 31 30 30 31 34 35 36 50 64 69 69 59 44 34 29 25 24 23 22 21 25 31 34 34 34 33 32 32 34 38 42 47 51 53 56 61 65 69 70 70 74 78
19 13 13 17 18 16 16 21 18 21 44 65 69 70 72 71 70 70 61 42 31 33 32 29 32 32 29 40 56 41 9 4 25 33 24 16 14 17 22 27 32 37 41 40 34 30 29 31 34 34 36 50 65 70 67 56 43 37 32 29 29 27 26 26 28 32 33 32 31 33 34 38 43 45 48 50 47 47 54 60 65 69 72 76 82 85
20 18 15 14 16 20 24 26 23 30 48 54 43 39 53 75 84 79 73 64 47 38 35 23 13 16 21 25 37 37 15 -0 4 7 6 8 10 11 13 14 22 33 39 39 34 30 32 36 35 34 39 51 61 66 64 53 44 40 35 33 33 31 30 30 29 32 35 32 31 33 36 41 45 47 49 50 47 47 53 58 63 69 74 78 81 82
26 19 19 18 18 21 26 33 43 51 49 38 32 31 41 65 83 80 73 72 64 57 55 42 22 21 29 21 12 16 12 3 2 4 4 4 6 9 10 8 16 32 41 39 32 27 31 37 38 39 45 55 62 63 61 53 47 43 38 33 32 31 31 32 32 35 38 36 34 34 37 43 48 49 52 55 56 60 64 67 71 78 85 89 89 86
41 28 28 25 22 23 25 36 53 52 34 27 43 53 46 46 58 65 64 64 62 61 65 67 58 49 44 30 10 7 9 4 3 3 2 4 7 6 6 8 12 23 33 38 37 34 35 39 42 45 49 57 62 62 57 52 48 45 38 34 34 34 32 33 36 40 44 44 40 37 40 47 50 52 55 59 64 71 74 77 80 85 90 92 90 85
41 39 39 31 25 26 28 37 44 38 32 38 46 49 49 51 58 65 66 61 58 56 59 69 72 62 52 43 32 28 22 7 1 5 3 2 5 4 5 7 7 13 26 38 43 42 41 43 44 44 48 56 61 59 54 49 48 46 41 38 38 35 34 37 41 44 47 48 46 43 44 47 50 53 57 61 67 73 76 77 80 83 85 86 85 80
35 42 46 41 39 36 33 40 42 35 39 51 50 46 52 60 63 64 61 55 56 58 57 63 68 64 63 63 55 53 48 24 3 3 4 2 3 5 3 2 8 22 35 39 40 39 40 44 44 40 42 51 57 56 52 49 49 48 45 42 41 38 39 42 44 45 48 50 50 50 48 49 52 55 58 64 68 71 72 74 77 80 81 82 83 77
28 36 42 42 43 40 34 40 45 40 42 52 56 55 54 55 59 63 57 49 52 59 60 66 71 65 66 76 70 64 66 49 18 2 2 4 2 3 7 11 18 29 33 30 30 35 40 45 46 39 37 46 53 51 48 49 50 49 47 45 45 46 46 47 47 48 51 52 52 51 50 51 54 57 62 67 68 70 74 78 81 83 83 82 82 76
24 27 34 37 42 43 38 41 45 43 44 50 51 52 53 53 56 62 60 51 50 58 65 72 74 65 60 71 79 78 70 48 20 6 5 6 2 4 18 25 19 14 16 19 26 35 40 44 45 40 37 43 50 49 48 50 50 48 48 48 50 52 51 50 52 54 55 54 52 50 50 52 55 60 66 69 68 72 79 84 89 90 85 78 73 70
26 22 22 27 36 41 38 38 39 35 37 44 44 42 47 53 55 54 51 44 44 54 58 56 62 71 66 52 51 62 56 32 20 21 16 10 4 5 15 19 9 4 11 19 25 32 39 43 43 40 37 41 49 52 52 52 49 49 51 53 54 55 53 52 54 55 55 54 51 50 52 55 58 62 66 68 69 72 77 81 87 90 85 74 67 65
32 28 22 19 23 29 32 37 37 34 39 50 54 51 54 62 63 56 43 34 37 43 41 37 49 70 69 42 27 39 41 28 30 35 24 11 9 11 14 12 5 5 14 22 25 29 37 42 43 43 41 43 50 55 54 52 51 51 53 54 54 53 53 53 53 53 53 53 53 55 58 60 63 69 73 74 74 75 77 75 77 86 86 73 64 64
32 28 24 21 18 19 24 31 36 40 48 57 61 60 63 65 61 53 45 40 40 39 35 35 43 53 56 45 33 33 31 25 29 34 25 16 15 13 12 10 5 6 15 23 26 30 38 44 45 45 44 44 49 55 55 53 53 52 52 53 51 51 52 52 52 53 54 54 54 57 61 64 71 80 83 81 80 83 85 81 80 87 85 71 62 64
31 29 25 23 22 22 23 27 32 38 47 57 62 60 61 61 55 52 54 52 46 42 38 37 40 42 42 40 33 31 33 32 36 38 29 20 16 11 7 8 7 8 13 20 28 34 40 45 45 46 46 47 49 52 53 53 53 52 52 52 51 52 53 52 53 54 52 51 55 60 63 70 81 87 85 84 86 88 89 85 79 75 70 64 63 67
35 33 30 25 27 34 38 34 34 39 45 52 58 56 53 55 56 56 58 52 44 43 42 40 42 44 44 43 38 34 32 28 29 36 33 25 19 14 9 10 10 9 12 18 26 35 41 45 46 47 48 49 50 50 51 52 52 52 53 53 53 54 53 52 54 53 53 59 68 69 66 70 79 83 85 87 87 85 81 75 68 64 64 64 64 64
44 41 40 40 41 46 51 44 36 38 39 37 44 51 51 54 59 58 56 51 45 47 48 45 44 44 45 49 49 42 35 23 17 26 38 39 33 23 15 14 14 15 18 20 24 32 41 47 49 49 49 50 52 52 52 53 53 53 54 54 53 53 53 52 53 54 59 70 76 71 67 70 75 79 86 87 82 76 73 71 68 68 67 62 56 56
65 57 56 63 61 53 53 51 42 38 37 33 39 47 46 46 49 49 53 55 50 51 54 50 46 44 44 49 51 49 45 33 19 23 39 48 46 38 31 28 27 27 28 28 28 32 38 45 50 51 51 51 51 52 52 52 53 53 53 53 53 53 53 55 58 62 66 71 72 67 65 70 74 78 85 87 79 74 74 73 71 69 62 53 50 52
76 69 64 70 72 63 58 56 47 41 37 36 43 46 38 35 37 40 51 55 48 48 58 57 48 44 45 48 50 49 46 37 24 22 35 47 52 50 46 44 42 40 38 38 37 36 36 39 44 47 49 49 47 49 51 52 54 54 54 54 55 56 58 62 67 70 70 70 68 63 62 69 75 79 84 84 78 74 75 74 70 64 56 51 50 48
74 74 71 69 69 67 63 58 53 49 39 32 38 43 34 27 26 30 43 50 46 47 57 60 55 50 48 48 46 42 41 38 29 24 35 50 55 51 49 48 47 45 44 43 43 43 40 39 40 43 45 46 46 49 53 54 55 55 55 56 59 61 65 68 68 68 68 68 67 65 69 78 81 83 87 83 75 73 75 71 65 60 55 53 51 47
75 75 77 73 65 58 56 56 60 61 49 33 31 35 29 20 18 21 30 41 48 51 54 60 62 57 51 50 49 42 38 38 33 29 38 50 51 46 47 50 48 47 48 47 47 49 47 44 42 42 43 44 48 53 56 57 57 57 57 59 62 66 71 70 65 64 66 68 68 70 75 80 81 85 88 79 69 71 73 66 60 58 55 53 51 46
79 73 71 67 60 55 55 59 63 62 50 37 31 28 21 15 14 17 21 33 47 53 55 61 66 61 54 53 53 49 45 43 42 37 35 38 42 44 49 51 49 47 49 50 50 51 50 48 47 46 46 48 51 55 57 58 59 60 62 63 63 67 70 66 60 59 61 63 68 74 77 79 84 88 84 71 66 70 68 59 57 56 50 45 42 38
79 75 64 58 60 63 61 60 61 54 43 38 33 24 17 16 16 17 21 32 45 52 55 62 67 62 57 54 51 48 46 46 47 47 40 35 38 45 51 54 54 53 53 52 52 52 51 51 51 50 51 53 55 58 61 62 62 63 65 64 62 63 62 57 55 57 58 62 71 78 81 83 84 80 72 68 69 68 61 57 56 50 40 36 35 33
Wind_Speed
31 33 33 29 27 26 25 24 26 26 22 19 19 18 17 15 16 19 22 21 22 22 20 19 19 18 17 16 16 17 16 16 15 14 12 11 11 12 12 13 14 13 13 12 12 12 12 11 11 11 10 11 10 10 10 11 10 10 10 10 9 9 8 7 6 6 6 6 5 5 5 5 5 5 5 5 5 4 3 3 3 3 3 3 4 4
35 35 32 29 27 25 24 25 28 28 25 22 21 20 19 18 17 17 21 23 22 24 22 21 21 20 19 18 18 19 17 17 17 15 13 13 13 13 13 13 14 14 13 12 12 12 12 12 12 12 12 11 11 11 11 10 9 9 9 10 10 9 9 8 7 7 7 7 7 6 5 5 5 5 5 5 5 4 4 4 4 4 5 5 6 6
37 35 31 30 29 27 28 29 30 30 29 26 22 22 21 20 19 17 20 25 23 24 24 23 22 21 20 20 19 19 19 18 17 16 15 15 15 15 15 15 14 14 13 13 12 12 12 12 12 12 12 12 12 12 11 10 9 9 9 10 10 10 10 10 9 9 8 8 8 7 7 7 7 6 6 6 6 6 6 6 6 7 7 8 8 9
36 32 30 32 32 31 30 31 31 31 31 28 23 23 23 20 20 19 24 29 23 22 25 24 23 23 22 22 22 20 20 20 19 18 17 16 16 16 16 16 16 16 16 15 14 13 13 12 12 12 12 13 13 12 12 12 12 12 12 12 12 12 11 11 11 10 9 9 9 9 8 8 8 7 7 8 8 8 8 9 9 10 10 11 12 13
33 32 32 34 34 33 33 33 33 32 34 32 26 25 22 20 22 21 26 30 23 23 27 25 24 25 25 24 23 23 22 22 21 20 19 18 18 18 17 18 17 17 17 16 15 15 15 14 13 13 13 12 12 12 13 13 13 13 13 13 13 13 12 12 12 11 10 10 10 10 10 9 9 9 9 10 10 10 10 11 11 12 13 14 15 16
33 34 35 36 35 35 36 36 33 33 35 34 31 28 23 21 22 22 26 29 25 28 29 27 26 25 26 25 25 25 24 23 23 21 21 20 20 20 20 20 19 18 18 17 17 17 16 16 15 14 14 12 12 12 13 13 13 13 13 13 14 14 14 13 13 12 12 11 11 11 11 10 10 10 11 11 12 12 13 13 14 15 16 17 18 18
32 35 36 37 37 38 39 37 35 35 36 36 32 29 27 25 24 24 28 29 27 29 29 30 30 25 24 26 26 27 26 25 25 24 23 22 20 20 21 21 20 19 19 18 18 18 17 17 16 15 15 14 14 14 15 13 13 13 13 14 15 15 15 14 14 13 13 13 13 12 12 11 11 12 12 13 13 14 15 16 17 17 18 19 19 20
30 33 37 39 39 41 41 39 38 37 38 37 31 27 27 27 27 26 29 31 28 27 28 30 31 28 26 26 27 28 27 26 26 26 25 23 21 21 22 23 22 21 21 20 19 18 18 18 17 17 16 16 16 16 16 14 14 14 14 15 15 15 15 15 15 15 14 14 14 13 13 13 13 13 14 14 15 16 17 17 18 18 19 18 18 18
28 32 37 40 40 41 41 40 38 36 39 38 32 26 25 27 28 28 28 31 29 28 29 30 31 33 31 27 26 27 28 28 28 27 25 24 22 23 25 24 21 21 21 21 21 20 19 19 18 18 18 17 17 17 16 15 16 16 16 16 16 16 16 15 16 16 16 15 15 14 14 14 14 14 15 15 16 17 18 18 18 17 17 16 15 14
30 32 37 40 40 42 43 40 36 37 40 39 35 29 25 26 27 27 28 30 31 32 32 32 33 34 34 30 27 28 28 28 28 27 26 24 23 24 25 23 20 20 22 22 22 22 21 20 20 19 18 18 18 17 17 17 18 18 18 17 17 17 16 16 16 16 16 16 15 15 15 15 15 15 16 17 18 18 18 17 16 15 14 14 13 13
30 32 37 38 37 42 45 39 36 41 42 38 38 33 27 26 27 29 31 31 34 37 36 35 34 33 34 33 32 30 27 26 28 28 26 24 21 22 24 23 20 20 21 21 22 22 23 22 21 20 19 18 18 18 18 19 19 19 19 18 19 19 17 16 16 16 16 16 17 17 17 17 16 17 17 18 18 18 17 15 14 14 14 14 13 13
31 33 36 36 35 40 44 40 39 44 43 41 42 36 28 29 31 32 32 32 35 35 31 31 32 32 33 34 33 30 27 27 28 27 25 23 21 23 25 24 22 21 20 19 20 20 20 20 20 21 20 19 19 18 18 20 20 20 20 20 20 20 19 18 17 17 17 17 17 18 18 17 17 17 18 18 18 17 16 14 14 14 14 14 14 14
32 33 33 33 35 39 43 44 43 45 46 46 46 40 34 33 32 31 33 35 37 33 27 27 29 32 34 33 31 31 29 29 29 26 26 24 21 23 25 25 24 23 20 17 16 17 16 16 17 19 21 21 19 18 18 19 20 20 21 21 21 21 20 19 18 17 17 17 18 18 17 17 16 16 16 17 17 16 15 14 14 14 14 14 15 15
33 34 34 33 33 37 43 46 46 49 50 49 49 45 39 36 35 33 33 34 36 32 28 28 29 32 37 33 28 31 30 26 26 28 27 24 18 19 24 28 27 23 20 16 13 13 13 13 14 16 19 21 19 17 17 17 19 20 21 21 21 21 20 18 18 17 17 18 18 16 15 15 15 15 15 16 16 15 14 13 13 13 13 14 15 15
34 35 35 33 32 35 40 45 48 50 47 47 51 48 42 41 39 34 32 34 34 30 27 30 32 34 37 32 26 30 31 27 24 25 26 23 18 17 21 25 26 22 20 16 10 10 12 11 13 14 16 18 17 16 16 16 17 19 20 21 21 21 19 18 18 18 18 18 17 15 15 15 14 14 15 16 15 14 13 12 13 13 13 14 15 16
35 35 35 34 34 33 35 41 47 47 44 48 53 51 48 47 39 31 32 31 28 28 29 30 33 32 28 27 29 31 33 34 27 22 24 22 18 18 18 21 22 21 20 15 8 8 11 11 13 14 14 14 14 14 14 14 15 16 19 21 22 22 20 19 19 19 19 18 16 15 15 15 15 15 15 15 14 13 12 13 13 14 14 15 16 17
36 35 35 36 36 34 34 38 45 48 48 50 54 53 53 52 42 34 33 30 26 30 33 30 30 29 24 29 36 34 33 36 31 25 23 21 20 21 20 21 22 22 21 15 9 9 11 12 13 14 13 13 12 12 12 12 13 14 17 19 21 21 20 18 18 19 19 18 17 16 16 15 15 15 15 14 13 13 13 14 14 15 16 17 17 18
35 34 35 38 36 35 35 37 43 51 52 48 48 50 52 52 47 41 37 33 31 33 33 31 31 30 29 34 37 34 35 35 31 27 23 21 24 25 24 25 24 24 22 16 14 15 14 13 13 13 13 12 12 12 11 11 12 13 15 17 18 19 17 17 18 18 18 18 17 17 16 16 16 15 14 14 13 13 14 15 16 16 16 17 18 18
37 35 34 38 38 36 38 38 41 49 54 51 44 44 50 53 52 48 42 38 37 37 34 30 32 33 34 36 34 32 35 35 32 30 26 24 23 24 27 27 24 23 22 18 18 20 17 13 12 13 13 13 13 12 10 11 12 11 11 14 16 17 17 18 18 18 18 18 17 18 17 16 15 15 14 14 14 14 15 16 17 18 18 18 19 20
38 39 35 35 38 39 40 40 41 45 51 54 50 42 43 51 54 49 44 41 38 38 36 31 31 34 33 32 33 30 28 29 33 35 33 27 21 20 26 26 22 21 20 18 20 22 19 15 14 13 14 14 14 13 11 11 11 10 9 11 14 16 18 19 19 18 19 19 19 18 17 16 15 15 15 14 15 15 16 17 18 20 20 20 21 23
37 41 39 32 35 42 42 40 39 41 46 53 58 53 43 45 49 47 45 45 41 37 37 34 33 32 27 26 30 29 23 24 31 34 34 28 22 22 24 23 24 25 21 19 21 22 22 19 16 15 15 16 15 12 11 11 11 10 9 10 13 15 17 19 20 20 21 21 20 18 17 16 16 15 15 14 15 15 17 19 20 22 22 22 23 24
38 41 41 32 32 42 43 39 37 39 42 47 55 60 53 42 41 47 51 47 42 41 40 36 34 30 24 23 26 29 26 25 26 27 29 26 24 24 19 18 24 26 23 21 22 23 24 22 18 17 16 17 14 11 12 12 12 11 9 9 12 14 15 18 19 20 21 21 20 18 17 17 16 15 15 15 15 16 19 21 22 22 22 22 24 25
39 40 43 38 35 37 41 40 40 38 39 41 46 54 57 50 40 43 51 49 44 43 41 38 36 30 23 22 26 30 30 27 24 26 31 30 25 22 17 13 23 25 23 23 23 23 23 20 18 16 16 16 14 13 14 14 13 13 10 9 10 11 13 15 17 18 20 19 18 18 17 16 15 15 15 16 17 19 20 21 22 21 22 25 27 27
41 40 42 42 38 34 34 40 41 39 38 41 43 45 53 59 50 42 47 50 48 44 39 40 42 35 27 25 25 26 27 27 29 33 35 31 24 20 16 16 27 29 26 25 24 22 21 20 18 17 16 16 16 16 16 17 15 14 13 10 8 10 12 13 14 16 17 17 17 17 17 15 14 15 16 18 18 18 19 20 21 22 24 28 30 30
44 44 42 43 42 37 35 40 42 42 43 44 47 48 52 57 55 51 50 46 47 49 44 43 44 37 31 28 27 25 25 25 29 34 34 31 29 24 20 22 28 27 27 27 24 22 22 22 21 19 18 17 18 18 18 19 18 15 15 13 10 11 13 13 14 14 14 15 16 15 15 14 14 16 18 19 17 16 17 19 20 21 24 26 26 26
40 44 44 44 46 44 43 44 44 43 44 44 46 50 53 50 50 58 61 53 51 53 51 47 43 36 33 30 29 30 29 26 28 33 32 32 32 30 27 29 25 22 27 29 25 24 25 24 23 21 20 19 19 19 19 20 21 18 16 14 12 14 15 15 15 14 13 14 14 14 14 14 16 18 18 18 15 14 15 18 20 21 23 22 21 22
41 43 46 46 46 45 43 40 39 39 39 38 41 45 48 46 46 53 61 62 59 54 52 52 46 39 37 33 29 31 34 32 32 38 38 33 30 31 37 39 32 25 29 31 28 28 27 26 25 23 22 21 20 20 20 21 22 20 16 14 14 15 16 16 16 15 14 15 15 14 14 17 18 18 17 16 15 14 15 18 20 21 23 23 23 24
48 46 46 47 45 42 39 36 37 39 36 31 34 39 42 44 45 47 51 59 62 56 56 58 52 47 46 38 28 30 34 36 34 40 43 39 35 36 39 41 37 34 33 33 32 31 30 28 27 24 23 22 21 21 21 21 23 20 17 14 14 16 16 16 15 15 16 16 15 15 16 18 19 18 18 17 16 15 15 18 20 20 22 24 26 28
49 48 45 45 43 40 38 37 36 34 32 29 30 36 40 42 46 47 47 53 58 56 58 58 52 53 57 50 39 33 31 34 36 37 41 39 37 38 39 37 37 38 38 37 35 33 32 30 26 25 24 22 21 21 21 22 23 21 18 16 15 16 16 15 15 16 16 16 15 16 18 19 18 18 18 17 17 16 16 18 19 20 22 25 28 30
49 48 45 43 42 41 39 38 37 33 29 29 32 34 35 35 40 46 48 51 53 53 56 55 48 51 59 59 56 50 40 33 34 36 39 39 36 36 38 38 37 38 39 39 37 34 33 29 25 24 23 22 22 22 22 23 22 20 19 17 15 15 15 15 16 15 15 16 17 18 19 18 18 18 18 18 19 19 19 20 22 23 24 26 28 31
51 49 45 43 43 44 41 37 39 39 34 31 32 32 31 31 34 39 44 49 50 50 54 57 55 55 56 54 56 61 56 46 38 35 35 37 38 39 40 40 40 39 38 37 36 35 32 28 25 24 23 22 23 23 24 24 22 20 20 19 16 15 15 16 16 16 16 17 18 18 18 17 17 18 18 19 20 21 22 23 25 26 27 28 30 32
50 49 47 45 45 45 41 37 38 40 39 39 38 35 33 33 34 35 38 43 47 49 53 58 59 60 59 53 50 56 63 61 56 51 44 39 39 42 42 41 41 39 36 34 35 35 32 28 25 23 22 23 24 25 25 24 23 21 21 20 17 16 17 18 18 18 19 18 18 17 16 16 17 18 19 20 21 22 23 25 26 27 29 31 33 35
48 49 48 47 46 44 40 39 37 36 39 44 43 38 35 35 34 33 35 39 42 46 50 57 60 58 59 59 56 58 64 63 60 60 58 50 44 43 43 41 39 37 36 36 37 36 32 28 25 23 23 24 26 26 25 25 24 23 23 22 20 19 20 21 21 22 24 24 22 20 18 19 20 21 21 22 23 24 25 26 28 30 32 34 36 38
49 51 48 47 47 44 41 38 35 38 43 41 36 34 36 38 36 35 36 38 39 40 41 48 53 51 51 57 59 60 64 63 56 55 58 55 50 49 46 41 38 38 40 41 40 38 34 27 24 25 25 25 27 26 27 27 26 25 26 26 25 23 23 23 23 23 26 27 26 23 22 23 24 25 25 26 26 27 28 29 32 34 36 38 40 43
48 49 47 47 46 44 42 40 39 42 41 36 31 30 33 36 37 38 39 39 39 39 38 39 42 42 43 49 55 57 60 61 56 53 54 54 51 52 49 42 39 41 43 42 38 36 32 28 26 28 27 26 28 29 29 29 27 27 28 28 28 26 24 23 23 23 25 26 26 26 25 26 27 28 29 30 31 31 32 33 35 37 40 42 45 48
46 44 44 46 46 44 44 44 44 41 35 33 34 31 29 31 33 36 41 41 40 40 39 38 37 37 39 42 44 47 52 57 55 52 52 52 51 53 51 43 40 44 45 42 38 34 30 29 30 31 29 28 30 31 30 30 29 29 30 30 30 29 26 24 23 23 24 26 27 27 28 29 30 31 32 33 34 35 36 37 38 41 43 46 49 52
48 45 44 45 45 45 44 43 41 38 36 36 36 34 34 34 33 35 40 43 41 39 38 39 38 34 34 37 40 41 44 49 52 51 51 51 51 53 51 45 44 47 45 42 39 34 31 32 33 33 31 30 32 33 32 31 30 30 32 33 33 30 29 27 26 26 26 27 28 29 30 32 33 34 35 36 37 38 38 39 41 43 46 49 52 54
53 50 48 47 45 45 45 43 41 40 40 39 37 37 37 36 33 34 36 37 38 38 36 37 39 38 34 33 37 38 38 41 45 48 49 49 50 53 52 47 46 47 44 40 38 35 34 35 36 35 33 32 34 36 34 32 31 33 35 35 34 33 33 32 31 31 31 31 31 33 34 35 36 38 38 38 39 40 41 41 43 44 47 50 53 55
55 53 51 49 47 45 45 44 41 40 40 40 39 38 37 36 35 34 35 33 32 36 37 34 36 38 38 35 34 35 38 41 42 43 46 47 48 50 50 45 43 44 43 42 40 37 35 36 37 36 34 34 35 36 35 33 35 37 37 36 36 37 37 36 35 35 35 36 37 38 38 38 39 41 41 41 42 43 43 44 45 46 48 49 52 55
55 55 55 53 49 46 46 44 42 41 42 42 40 38 39 38 34 34 36 32 29 34 38 36 32 33 37 41 40 38 40 39 37 38 41 44 47 48 47 44 43 43 43 43 42 39 37 38 39 38 36 35 35 35 37 38 40 39 38 37 38 39 40 39 39 39 39 40 41 41 41 42 42 43 44 44 45 45 46 47 47 48 49 49 50 54
57 56 57 56 52 48 46 43 42 42 42 40 37 37 38 34 29 29 32 31 30 33 36 36 35 33 35 40 42 42 42 37 34 37 41 43 45 46 43 43 43 41 41 44 44 42 39 39 40 40 39 37 36 37 40 42 41 39 39 40 41 41 42 42 42 42 43 43 43 44 45 46 46 47 46 47 48 49 48 48 49 51 51 49 49 52
58 58 57 55 53 51 48 45 43 43 42 39 36 35 33 29 28 28 27 27 30 32 32 35 37 35 34 34 36 39 40 38 37 41 43 42 42 40 39 41 42 41 42 45 45 42 41 41 43 43 42 40 39 40 43 43 41 41 42 43 43 43 43 43 43 44 44 45 46 47 48 50 51 51 48 47 49 51 50 50 51 52 50 48 48 51
57 58 56 52 49 50 49 48 46 44 42 39 36 34 33 31 29 27 25 26 29 30 31 34 35 34 34 33 32 33 36 37 39 41 41 39 38 37 37 40 42 43 44 45 44 43 43 44 45 45 43 42 42 42 43 43 43 43 44 44 44 43 43 43 44 45 46 47 48 49 51 55 57 54 49 46 48 49 49 48 48 48 46 46 48 50
54 55 53 50 48 48 48 47 46 44 44 42 38 35 33 32 31 29 27 27 28 28 29 32 33 32 31 31 31 30 31 34 37 36 35 34 34 34 35 38 40 42 43 44 45 45 45 46 47 47 46 45 44 43 43 43 44 45 45 44 44 44 44 45 46 46 48 50 49 47 49 51 51 50 48 46 46 46 45 45 46 45 45 46 48 49
52 53 51 50 49 47 47 48 47 46 46 45 39 34 33 31 32 34 33 30 27 26 27 30 33 33 31 29 30 29 28 30 35 36 35 33 33 34 34 36 38 39 42 44 46 46 47 47 48 48 47 45 44 43 43 44 45 46 45 45 45 45 46 47 47 48 50 51 49 48 47 46 44 45 47 46 44 44 45 46 47 46 46 46 47 48
52 52 50 50 50 50 50 50 50 49 47 42 37 35 34 33 33 35 35 33 29 27 28 31 33 33 31 30 31 31 29 29 33 38 39 36 34 33 34 34 36 37 40 42 43 45 46 47 48 48 46 45 44 44 44 45 45 45 45 44 44 45 46 46 47 48 49 49 49 49 48 45 43 45 48 47 45 45 47 47 47 46 45 45 46 45
53 51 48 48 49 50 50 50 49 49 46 40 35 33 33 33 34 35 36 35 32 30 30 32 33 32 32 31 32 33 32 30 31 37 42 40 37 36 35 34 35 36 38 39 41 42 45 47 49 49 48 47 46 45 45 45 45 45 45 44 44 44 45 45 47 49 49 49 49 48 47 45 44 45 47 48 48 47 47 46 46 45 45 45 45 44
52 50 48 50 50 49 50 49 47 45 44 42 38 33 32 33 35 36 36 37 35 34 33 32 33 34 34 34 34 33 32 30 30 35 42 42 39 37 37 36 35 37 38 39 40 41 43 45 48 49 49 47 46 46 47 46 46 46 46 46 45 45 45 47 48 49 50 50 48 46 46 47 47 47 47 49 49 47 46 45 44 44 45 45 45 45
49 48 46 48 50 49 50 49 44 42 43 43 40 36 34 35 36 36 37 37 36 35 32 31 33 35 35 35 33 31 30 30 30 33 41 45 42 39 37 36 36 37 38 39 40 40 41 43 45 48 48 48 48 48 48 47 47 48 48 47 46 46 47 47 46 47 49 49 48 46 46 47 48 47 49 50 49 47 45 44 43 44 45 46 46 45
46 47 46 45 45 45 46 46 44 42 41 40 38 36 34 35 37 37 37 37 36 34 32 30 32 34 35 35 34 32 32 32 32 33 38 43 43 40 38 37 37 38 39 39 40 41 42 43 45 46 48 48 49 49 48 46 47 47 47 45 45 45 45 44 45 45 47 48 48 47 47 47 48 49 50 51 49 46 44 43 43 44 44 44 44 44
43 43 42 41 39 38 39 40 39 39 38 36 36 35 35 35 37 36 36 37 37 35 32 31 32 35 37 36 35 34 34 36 37 38 38 40 42 41 40 39 40 40 41 41 42 43 44 45 46 47 48 49 49 48 47 46 46 46 45 45 45 44 42 43 44 46 47 48 48 48 47 48 49 50 51 50 47 44 43 43 43 43 43 43 43 43
Wind_Direction
229 229 230 229 223 219 216 215 216 205 193 203 216 224 226 217 219 234 246 235 212 213 217 212 213 213 212 215 214 214 215 217 217 211 203 193 189 191 188 185 185 186 187 187 188 190 192 193 195 195 196 201 204 205 209 212 216 219 220 219 221 223 225 231 239 247 250 250 247 238 228 219 209 204 201 202 202 204 207 212 227 242 264 279 288 297
228 230 233 234 227 223 219 216 218 209 194 199 214 221 225 223 221 228 247 246 219 212 218 215 214 214 214 216 216 215 216 217 218 216 209 202 196 193 190 189 187 186 185 188 191 193 196 196 197 199 200 203 206 209 212 215 217 220 223 224 226 228 230 235 241 245 247 247 242 234 224 218 216 215 213 214 217 224 236 245 256 264 272 281 288 295
229 230 233 234 228 221 219 216 217 215 200 193 205 219 222 223 219 215 238 249 230 213 218 218 216 216 215 215 215 217 218 217 216 216 213 206 203 199 194 192 190 188 187 189 194 196 201 205 205 206 208 209 212 214 215 217 220 220 223 226 227 228 230 235 240 242 242 242 238 230 221 216 218 221 223 228 233 238 249 258 265 271 275 280 284 289
233 232 234 236 230 221 218 218 217 217 208 197 204 219 218 216 219 213 222 236 233 221 221 219 217 217 215 215 217 217 218 218 215 214 214 209 206 205 202 197 193 194 193 192 194 198 202 208 214 216 217 219 220 220 221 222 224 223 224 225 225 227 228 232 237 239 237 235 234 230 225 219 219 226 231 235 239 245 251 258 264 269 273 276 279 282
235 232 232 235 234 225 218 218 216 215 213 206 204 214 215 213 214 219 231 236 233 227 225 221 218 218 217 216 218 220 221 222 219 216 213 211 208 206 205 204 201 199 197 197 196 198 201 205 211 218 222 228 229 227 227 228 229 228 226 226 225 225 226 229 233 235 233 231 230 230 227 226 228 233 239 244 248 252 257 262 267 272 275 276 278 281
235 231 229 231 234 230 221 219 214 212 215 213 207 207 210 217 215 218 239 243 228 222 225 224 223 222 222 221 219 222 224 225 226 223 218 216 213 208 205 206 207 207 203 203 203 202 204 206 209 215 221 228 233 234 234 235 235 233 230 228 226 225 224 226 228 229 229 228 227 229 230 233 238 243 249 254 258 263 267 272 274 275 277 279 281 283
235 231 228 228 231 231 226 221 215 210 213 216 216 212 205 211 217 218 234 241 229 223 224 225 227 225 225 225 221 223 226 226 228 229 226 223 221 218 215 211 209 213 213 210 212 211 212 214 214 216 220 225 230 235 237 239 239 238 235 232 230 228 224 222 224 225 226 227 227 229 233 239 245 250 255 261 267 272 276 278 279 279 280 282 283 285
239 233 230 227 228 231 229 224 219 212 211 212 214 221 216 212 216 218 233 242 236 229 225 225 228 227 225 224 222 225 226 226 229 231 230 228 226 223 223 220 212 214 220 220 220 220 221 222 223 223 224 227 231 235 240 243 244 243 240 240 238 234 229 223 223 224 225 227 229 232 236 242 248 253 260 268 273 278 280 281 282 281 282 283 283 283
242 235 233 231 229 232 232 228 224 215 212 210 205 216 229 227 220 215 226 240 238 231 227 226 227 228 227 222 221 225 225 227 231 232 233 232 228 226 225 221 214 214 222 226 227 227 229 230 230 230 230 232 235 237 239 240 243 244 243 244 244 242 238 231 228 229 230 232 234 238 242 246 253 260 266 273 277 281 282 281 281 281 281 281 280 279
244 235 232 233 229 230 233 230 226 221 217 212 205 206 219 231 232 222 223 236 239 234 228 225 225 228 229 226 224 226 226 230 232 233 237 237 234 235 230 220 214 216 222 228 230 230 231 234 234 236 236 238 240 240 239 238 239 241 242 244 245 244 242 239 238 238 238 240 242 245 249 254 259 266 271 276 280 281 280 279 279 280 280 279 278 278
245 237 233 234 229 228 233 229 225 225 222 215 210 205 209 223 233 232 231 237 242 241 233 225 225 230 230 228 229 232 232 234 234 233 236 237 235 236 234 230 225 224 223 227 232 233 233 235 236 238 239 241 243 243 242 241 240 240 240 240 242 243 242 242 244 245 245 246 249 251 255 259 264 270 275 277 279 278 276 276 278 280 282 281 279 278
245 242 238 236 230 228 231 228 224 225 223 219 214 208 209 222 228 231 231 231 238 241 236 227 226 233 233 228 229 236 236 234 234 236 236 235 230 229 235 240 240 237 230 226 234 241 244 247 248 246 244 243 244 245 244 243 242 240 239 238 240 242 242 242 244 245 247 248 251 255 258 262 266 270 273 275 275 274 274 275 278 283 285 283 280 280
246 247 245 240 233 228 227 225 223 224 223 220 216 210 212 222 226 226 225 226 232 237 236 232 229 234 237 231 228 232 233 233 234 233 233 235 234 238 242 241 240 243 238 232 241 256 266 274 273 265 258 253 249 247 246 243 242 240 239 239 241 243 243 243 244 245 247 249 252 256 258 262 265 267 269 271 272 274 276 279 282 286 288 288 286 286
244 245 245 241 235 230 228 225 222 224 224 221 217 212 211 218 222 224 223 224 231 237 238 235 232 235 238 235 232 229 227 232 234 227 227 230 234 250 249 237 235 238 236 237 247 264 279 287 285 278 268 262 258 253 249 245 242 240 239 240 241 244 244 243 244 243 245 249 251 253 256 258 260 263 266 267 269 273 277 281 283 285 290 292 293 296
246 245 246 244 239 232 230 228 224 225 227 225 221 215 213 218 218 220 224 225 228 234 238 236 232 232 234 233 235 231 224 226 232 226 226 225 223 239 243 232 233 235 233 236 244 266 281 282 277 276 270 265 262 260 257 251 247 242 240 239 239 239 239 239 239 241 244 247 248 251 253 254 256 258 260 263 268 272 277 282 285 287 291 295 298 302
249 250 250 247 244 236 231 230 226 222 223 227 225 217 216 220 215 215 228 232 232 235 238 239 238 237 233 228 232 233 226 226 232 228 223 226 227 233 235 231 234 239 239 238 244 270 278 276 275 278 274 270 267 268 268 260 253 247 241 238 236 235 234 233 235 238 242 243 244 250 251 249 250 252 255 260 265 271 278 286 291 295 297 299 300 302
251 251 250 246 244 239 231 228 227 221 218 227 228 220 221 226 220 218 230 232 232 237 237 236 243 248 243 233 231 231 228 228 232 231 222 226 234 233 238 241 237 237 241 246 255 267 272 270 272 278 279 279 279 279 278 270 261 252 245 240 237 235 232 231 235 237 238 239 244 250 248 245 246 248 252 258 263 271 280 286 291 295 297 297 297 298
248 248 249 248 244 241 235 225 225 224 219 222 229 225 223 227 224 222 228 230 229 235 237 234 238 241 241 241 237 232 231 231 231 234 227 223 234 242 248 250 242 232 232 245 258 263 269 268 268 280 286 284 283 283 281 275 267 258 253 247 241 236 231 230 233 232 234 239 246 249 246 244 246 247 252 259 265 274 281 287 291 292 291 290 291 294
244 243 244 249 246 242 240 230 223 225 222 218 223 227 224 224 223 220 222 227 230 233 235 234 234 234 235 243 246 239 238 237 232 231 227 219 231 252 252 243 240 235 230 237 254 262 266 261 261 277 284 280 280 284 282 274 272 268 261 254 246 237 228 226 229 231 235 243 246 247 247 246 247 251 256 262 270 277 283 287 290 288 287 289 293 296
242 243 239 244 247 242 241 237 226 224 226 220 217 222 227 227 224 222 223 226 227 230 234 234 235 235 232 237 249 248 242 238 231 227 230 226 221 243 249 238 233 236 233 232 243 256 260 254 255 266 273 277 279 284 282 274 276 275 265 257 247 236 230 228 229 232 237 242 245 247 247 247 249 255 260 266 274 280 283 286 287 287 289 295 300 303
236 243 240 236 243 245 242 239 234 228 227 224 218 215 220 227 225 222 225 229 227 227 232 235 236 238 231 228 242 246 235 231 228 226 234 235 218 225 247 249 238 232 233 232 233 246 255 254 255 258 263 270 276 284 284 275 276 277 269 259 247 237 234 233 233 235 239 243 246 246 245 247 251 258 264 270 276 281 283 284 287 291 298 304 307 307
231 238 240 230 234 247 246 239 237 234 230 229 226 220 217 221 223 221 222 225 228 231 231 233 237 239 234 227 235 240 232 224 221 221 230 227 212 216 230 248 246 232 226 233 232 237 247 252 256 256 257 266 278 293 289 276 271 273 272 262 250 242 239 239 238 238 239 242 243 243 244 249 255 260 266 272 276 279 281 286 294 303 309 309 305 303
232 232 238 234 230 242 249 244 239 237 231 227 230 228 221 218 219 223 223 221 225 232 231 232 235 234 227 224 232 243 241 225 208 207 214 211 210 214 202 222 254 241 221 227 234 234 241 249 254 255 258 269 282 293 291 282 271 267 268 263 257 253 246 245 242 238 238 239 239 241 247 252 257 262 267 271 275 281 287 296 305 308 308 308 306 304
232 228 233 238 233 229 242 248 243 238 233 223 222 226 225 221 217 221 227 224 224 228 228 230 235 231 221 219 228 243 244 227 211 208 211 209 217 223 201 215 246 241 220 220 229 234 241 248 253 257 261 270 279 283 286 285 276 267 264 262 263 261 253 250 247 241 238 238 238 243 248 251 256 260 265 271 279 291 301 308 309 305 303 306 307 309
233 231 229 233 234 224 225 239 243 239 235 229 223 223 227 226 220 223 228 224 225 229 226 228 235 233 228 222 223 237 247 235 219 217 219 217 220 221 209 219 233 224 209 211 220 230 240 246 251 255 258 264 272 275 278 281 280 270 262 260 264 264 261 260 256 247 241 241 243 246 247 250 254 258 267 279 290 300 304 307 311 311 309 309 311 316
231 234 230 228 233 232 230 237 243 241 237 236 231 226 227 227 220 223 227 223 225 229 226 227 232 234 236 233 224 227 239 237 218 213 219 222 225 227 220 225 233 217 203 208 215 223 232 240 245 251 254 258 264 268 270 276 279 273 261 258 264 266 266 266 264 259 253 249 250 249 248 251 256 262 273 285 294 302 304 306 312 318 318 320 324 328
223 229 233 231 231 235 239 240 241 240 237 239 239 231 225 223 220 224 228 226 228 231 230 228 226 225 229 231 229 225 230 234 220 208 211 214 220 229 228 229 238 230 210 207 212 220 227 234 239 244 249 253 259 262 265 270 275 273 264 258 262 266 267 267 268 267 262 255 253 252 252 256 261 269 278 283 290 299 303 303 309 319 323 326 328 328
227 229 234 236 234 233 236 235 233 235 234 234 243 241 229 222 221 224 228 229 229 230 234 234 230 228 225 220 222 226 231 240 228 206 208 214 215 224 230 231 236 234 222 215 214 218 223 228 233 238 243 249 253 256 260 266 270 271 267 260 260 263 265 266 268 267 262 258 257 255 255 260 268 276 281 286 294 300 303 303 307 316 323 325 325 324
230 232 233 238 240 237 234 231 229 232 231 225 231 240 238 228 223 222 226 232 231 230 234 238 239 240 236 226 219 218 223 240 239 217 211 217 221 227 233 233 233 232 229 225 219 218 222 226 231 236 241 246 249 251 257 263 267 269 266 261 259 261 265 266 267 265 261 258 257 257 260 267 275 282 287 297 304 306 309 311 310 312 316 318 319 319
229 231 230 232 237 238 235 232 229 227 227 226 226 232 237 236 232 227 225 229 233 232 233 235 237 241 241 236 233 229 222 228 244 239 227 222 222 226 228 228 228 230 230 227 222 221 225 227 231 237 242 244 245 249 255 261 265 266 263 261 260 261 265 266 264 262 260 260 259 259 264 272 280 287 295 303 306 308 314 317 317 318 316 315 314 314
227 228 228 227 231 235 235 232 230 228 224 225 228 230 232 234 236 237 233 229 230 233 235 235 234 236 240 240 240 240 234 225 229 237 230 222 222 223 223 224 225 226 228 228 225 225 227 228 231 238 242 242 243 248 253 259 264 263 261 262 263 264 264 263 261 258 259 262 262 261 265 274 284 291 298 301 302 307 313 316 318 319 316 314 313 311
226 226 226 226 228 232 234 231 230 231 228 223 224 226 227 228 231 235 238 235 231 231 234 236 237 237 239 238 237 241 240 232 230 235 235 228 223 221 221 225 227 227 226 224 223 224 226 228 232 239 241 240 242 247 252 258 261 261 261 263 264 264 263 261 258 255 258 263 265 265 270 281 290 296 300 300 300 304 310 314 316 315 313 313 312 310
225 226 225 226 228 229 232 233 231 234 234 230 230 231 227 226 229 233 237 239 237 234 236 239 240 240 240 239 238 242 244 240 235 238 243 241 235 231 229 229 231 229 225 223 222 222 223 225 231 238 239 238 241 246 252 257 258 258 259 260 260 260 260 260 257 256 260 265 268 272 280 287 293 296 298 299 300 302 307 310 310 311 311 311 310 309
224 226 224 225 228 227 229 233 231 232 234 234 236 238 231 224 225 231 237 241 241 240 241 243 244 243 243 244 242 243 247 246 239 237 242 244 241 241 238 233 229 227 224 226 228 226 222 223 228 233 234 235 239 244 249 253 255 255 256 258 260 261 260 260 258 258 263 266 268 273 282 289 293 296 298 300 301 302 303 304 305 306 307 307 307 307
221 222 220 222 225 225 227 230 229 230 233 235 237 239 237 232 226 224 230 240 244 243 241 245 249 247 244 247 247 245 246 247 242 238 240 241 239 239 237 231 230 230 228 229 231 226 220 220 225 229 229 231 237 242 246 249 252 253 256 259 262 264 263 262 260 261 265 269 271 274 281 288 293 297 300 302 302 302 302 302 303 304 304 305 305 306
223 222 219 220 223 223 225 228 228 229 231 236 239 237 236 237 231 223 223 230 238 243 240 238 244 249 248 248 249 249 248 247 243 239 239 238 237 237 234 229 230 233 230 225 223 220 218 219 224 227 226 228 235 241 244 247 250 252 256 259 261 263 265 265 264 264 268 274 278 280 283 289 293 297 300 301 301 301 300 301 302 303 303 304 305 306
223 222 221 220 221 222 224 228 230 229 228 232 235 233 228 227 226 226 226 223 223 231 237 236 235 240 247 248 244 244 249 249 243 238 237 237 236 237 235 229 229 233 230 223 220 218 218 220 225 228 227 227 233 238 241 243 247 251 255 258 260 263 266 267 268 269 273 278 283 286 288 291 293 296 297 297 298 298 298 299 301 301 302 303 303 304
219 220 221 222 222 223 224 226 227 226 225 226 226 225 227 228 227 231 236 233 222 220 230 237 234 229 232 242 245 245 246 247 243 237 236 237 237 237 235 229 227 231 231 226 222 219 218 221 225 229 229 228 232 237 240 242 245 249 253 256 260 264 266 268 271 274 278 282 284 287 290 291 292 293 293 293 294 294 295 296 298 299 300 301 301 302
218 220 221 222 222 223 223 224 225 225 226 228 227 228 232 236 237 237 241 243 232 222 224 233 236 232 228 231 238 240 241 244 243 237 234 235 237 237 235 230 228 230 231 228 223 219 219 222 226 229 229 228 231 237 241 242 244 247 250 255 259 263 266 270 273 276 280 283 285 288 289 290 290 289 289 290 290 290 292 293 294 295 296 298 300 302
219 221 222 221 221 223 224 225 226 229 232 232 230 234 237 239 243 244 243 243 236 229 229 230 233 234 233 233 234 236 240 243 241 235 232 232 233 233 231 228 229 230 229 227 222 219 219 222 226 228 229 229 231 235 240 242 244 247 250 254 258 262 267 271 274 276 279 282 285 288 288 288 287 286 286 287 287 288 290 290 290 291 293 296 300 302
219 220 222 222 222 224 226 227 226 228 232 232 229 233 239 241 244 246 245 245 241 235 232 231 230 233 236 237 237 238 241 240 235 232 231 230 231 231 226 225 227 227 226 226 223 218 218 222 226 228 228 228 229 233 238 243 246 249 251 254 258 263 267 271 274 276 278 281 284 285 285 285 284 282 282 284 285 286 287 288 289 289 290 294 298 299
219 221 222 222 223 225 227 229 228 228 230 231 229 232 237 241 244 244 246 250 250 244 238 234 234 240 245 244 240 238 238 236 231 230 229 227 228 229 224 222 224 223 222 224 223 219 216 219 224 227 229 228 227 230 236 242 247 250 252 256 260 263 267 270 273 275 278 281 282 282 282 281 280 278 279 284 287 287 286 287 289 288 288 292 296 298
220 222 224 223 223 225 228 229 229 229 230 231 232 233 234 237 241 245 251 254 252 247 244 241 240 244 250 252 250 243 236 232 230 229 226 223 224 225 222 220 221 221 220 221 221 218 216 218 222 226 230 231 229 231 235 241 245 249 252 256 260 263 266 269 273 276 278 279 280 282 284 283 280 277 279 286 292 293 290 288 289 289 289 292 295 297
218 223 226 226 225 226 228 230 230 230 231 232 233 236 237 237 240 245 250 251 247 245 246 245 244 244 246 252 257 255 246 238 234 229 224 222 222 221 219 218 219 220 220 219 220 219 217 217 221 224 228 231 233 234 237 240 245 249 252 256 259 263 266 269 271 274 274 274 276 280 284 287 285 282 283 287 292 294 293 290 289 291 292 292 293 295
213 218 220 223 224 225 227 230 232 233 234 234 235 236 236 236 239 243 246 246 244 245 246 244 243 241 240 242 248 254 253 246 238 229 220 218 220 218 216 216 217 217 218 219 219 219 217 218 220 223 227 232 235 238 239 242 245 249 253 256 259 263 266 269 271 273 272 273 276 278 280 286 289 288 288 288 290 292 292 291 291 292 291 290 292 293
209 211 211 215 220 222 223 227 231 234 236 237 238 238 235 234 237 240 241 240 238 238 242 243 239 236 234 234 238 242 245 244 237 227 219 214 214 214 214 216 217 218 219 220 220 220 219 219 221 224 227 231 235 238 241 243 246 250 253 257 260 263 267 270 272 272 273 276 279 279 279 282 286 288 289 289 289 291 292 291 292 291 290 290 292 291
210 211 210 213 217 220 223 226 229 233 236 239 242 241 237 236 238 237 237 236 233 231 235 239 238 235 232 232 232 233 237 239 234 225 218 212 211 211 212 215 217 218 220 221 221 222 222 222 223 226 228 232 236 240 242 245 247 250 252 255 258 261 264 265 267 269 272 274 276 278 279 281 282 284 287 288 288 290 291 292 291 290 290 292 291 289
213 213 213 216 219 220 222 226 229 232 236 238 241 242 240 239 239 237 235 235 233 231 231 234 236 235 232 229 229 231 234 235 230 221 214 211 210 210 213 216 218 219 220 221 223 225 224 224 225 227 230 234 238 240 242 244 245 247 250 252 254 256 258 262 266 269 271 272 274 276 280 282 283 285 286 286 287 289 291 291 290 289 290 290 289 288
210 212 213 217 220 221 224 229 231 232 235 235 237 241 243 240 238 237 237 237 236 235 235 233 233 233 231 230 232 235 236 234 228 218 212 211 212 214 215 218 219 220 220 221 223 225 226 226 227 229 232 235 239 241 243 244 247 249 250 251 253 256 257 261 265 268 270 272 275 277 279 281 283 283 284 285 288 289 290 290 289 288 288 288 287 288
207 211 213 216 220 223 228 232 231 230 231 233 235 238 240 239 238 238 238 238 238 239 239 236 234 232 230 230 232 234 232 229 225 220 215 213 214 217 219 221 222 222 222 222 222 224 225 227 229 231 234 237 239 242 244 246 248 251 252 255 261 264 262 260 263 266 268 271 273 275 278 280 280 281 283 286 288 288 289 288 287 287 287 286 286 287
206 209 212 216 219 222 227 229 228 228 229 231 234 236 236 237 239 240 237 234 233 234 235 235 235 232 230 231 232 231 228 224 221 219 217 215 215 218 221 224 225 224 224 224 224 224 226 228 230 232 235 238 240 242 244 245 249 252 256 261 266 266 261 260 263 265 267 269 272 274 277 279 280 281 284 287 287 286 286 287 286 286 285 285 286 288